RH
23 21 20 18 14 10 7 6 7 7 7 8 6 7 12 16 21 17 10 10 11 22 40 49 58 59 48 49 56 60 62 58 53 52 52 54 50 47 52 50 44 45 43 43 46 39 34 40 40 38 49 58 58 63 72 77 76 62 53 53 48 43 44 49 59 61 52 46 40 38 44 44 43 47 52 63 71 61 52 63 74 72 68 65 67 77 69
21 21 19 15 10 7 7 7 7 7 7 8 6 7 14 20 21 19 16 12 12 22 36 51 61 55 54 63 59 51 56 60 63 61 55 52 48 46 53 51 42 44 46 46 48 41 29 33 40 36 39 54 58 56 63 74 74 64 59 59 51 43 45 52 62 69 67 62 56 56 58 49 41 51 62 65 68 67 64 68 74 76 73 64 69 87 75
21 19 15 11 7 7 8 7 7 8 7 7 8 8 13 21 23 24 22 13 12 25 36 43 48 50 53 53 46 46 53 52 54 59 57 50 45 44 49 49 44 46 48 49 54 50 33 29 40 39 38 57 69 62 60 73 77 67 60 59 54 51 53 52 54 59 61 62 63 64 60 50 48 59 64 62 63 63 61 67 74 80 80 70 75 88 69
19 15 9 7 7 7 8 7 7 8 7 6 9 10 13 21 27 30 29 19 14 20 26 31 39 47 48 45 40 44 52 47 42 52 58 48 42 45 46 45 44 46 51 54 57 56 43 34 42 46 44 56 69 66 63 67 67 61 55 50 52 60 61 57 55 57 59 59 58 57 51 46 52 60 63 68 69 60 62 75 78 78 85 84 75 67 56
13 9 7 7 7 7 7 7 7 7 7 7 8 12 16 25 34 35 29 26 27 29 26 27 34 38 38 42 40 37 46 51 45 49 54 45 42 48 49 48 46 45 52 55 51 52 49 42 44 48 49 55 62 67 70 67 60 57 51 45 55 65 64 61 60 58 62 61 53 52 51 47 49 53 59 73 77 69 72 81 71 64 79 87 71 51 51
8 7 8 7 7 8 7 7 7 6 7 7 8 14 19 23 30 28 25 32 39 35 27 29 42 46 39 42 44 41 48 49 39 39 45 46 48 47 46 51 51 47 50 49 48 53 52 50 53 50 47 56 62 64 68 63 56 54 46 41 55 65 64 64 60 55 57 55 53 55 50 45 46 48 51 59 66 67 67 64 54 51 64 70 57 46 53
8 7 8 8 8 9 8 9 8 6 7 8 9 16 18 21 27 25 23 31 31 24 21 30 49 53 43 43 45 42 49 50 38 36 43 50 52 43 40 52 59 58 54 47 49 53 47 46 53 51 47 55 61 58 57 55 52 54 52 48 51 57 66 70 63 61 62 57 59 59 46 42 47 46 45 48 51 55 54 51 48 48 52 53 51 56 61
9 9 11 11 11 11 10 10 9 7 9 8 9 14 14 17 25 24 25 31 27 22 23 32 47 48 40 43 44 43 54 55 45 43 44 46 53 49 46 59 69 66 55 49 54 59 54 47 50 55 58 62 62 56 52 54 57 58 60 59 49 44 61 71 61 66 73 59 54 53 42 45 51 47 46 47 50 57 56 51 53 58 63 60 62 74 73
11 11 13 12 13 13 10 11 10 7 9 9 8 12 11 14 20 18 25 38 33 25 25 31 47 53 46 47 46 47 55 52 48 53 47 40 52 57 52 61 72 68 60 63 69 69 67 63 58 60 62 61 58 53 50 54 62 66 66 68 63 54 65 75 66 68 71 56 51 53 46 51 61 58 53 52 55 63 60 54 58 68 75 76 80 89 81
13 14 16 13 13 13 9 10 10 7 9 9 8 11 11 15 20 15 22 39 34 26 32 40 44 41 39 47 46 40 45 47 44 47 44 42 50 50 46 55 66 66 66 72 69 60 60 63 61 58 56 54 53 52 51 50 55 69 73 73 75 69 68 75 71 69 72 62 55 54 50 62 78 70 56 53 57 62 58 56 61 64 72 83 88 84 68
15 14 14 11 10 10 8 9 9 8 9 8 8 11 10 12 18 17 28 43 36 25 33 46 47 38 36 45 46 40 47 54 45 36 41 54 57 50 47 53 59 63 64 63 59 54 54 54 52 53 52 51 51 50 51 47 45 57 64 68 77 76 71 74 69 67 81 77 62 61 70 81 79 61 49 51 57 61 62 63 64 61 63 71 71 64 59
13 10 9 8 8 8 8 8 8 8 9 8 9 11 10 11 15 18 31 45 40 32 35 37 39 41 40 40 43 47 52 54 48 39 41 54 61 59 53 50 54 61 59 56 55 57 59 55 54 58 56 52 52 51 54 58 53 47 47 57 71 74 74 77 68 67 83 83 71 79 91 84 64 51 51 51 50 54 58 62 68 67 63 66 67 62 61
9 8 8 8 7 7 7 8 8 8 8 9 9 10 10 11 14 17 27 38 39 39 41 35 31 37 44 43 44 49 51 46 44 46 47 49 55 59 54 47 51 57 54 54 55 58 67 71 66 64 63 63 64 62 64 69 66 54 47 49 57 64 71 73 71 74 81 80 80 84 79 66 58 56 54 52 54 59 61 66 77 78 70 69 69 64 58
8 8 8 8 7 8 8 8 8 9 9 9 9 10 10 11 13 14 21 35 43 37 32 36 42 46 49 48 45 49 54 49 41 45 51 47 44 47 47 44 47 50 46 47 53 56 61 66 63 64 69 69 65 66 70 68 61 58 57 48 47 60 69 67 70 79 79 76 81 80 69 66 73 69 58 57 64 65 63 70 81 81 72 67 63 60 58
8 8 8 8 9 9 9 10 10 10 11 11 10 11 11 11 14 14 17 30 43 41 37 44 54 54 51 48 44 46 56 55 45 44 46 39 36 42 44 40 41 44 41 43 53 57 52 49 50 55 60 54 46 55 70 67 54 51 54 49 46 52 62 66 71 78 78 78 84 86 81 83 86 74 57 54 58 55 57 74 85 78 67 62 60 61 62
8 8 9 9 10 10 10 11 11 11 13 13 11 13 13 12 13 15 18 22 29 43 51 47 45 46 46 46 42 38 45 52 51 51 51 48 45 45 43 39 39 40 42 47 54 54 49 46 44 45 49 44 37 44 57 61 58 50 46 48 48 49 62 77 82 81 78 79 84 87 86 88 85 69 54 52 56 53 54 72 87 78 62 60 64 66 68
8 9 9 9 11 11 12 12 12 12 13 14 13 13 13 13 13 15 21 21 26 45 52 42 43 51 50 52 54 44 40 45 46 45 47 50 48 44 42 42 42 41 43 52 59 55 51 52 53 54 52 42 37 43 47 54 63 59 51 58 66 69 79 84 80 81 81 81 83 81 82 86 76 61 58 57 50 49 61 76 80 69 60 64 70 71 71
8 9 9 10 11 12 13 13 13 13 13 14 15 14 13 14 13 15 19 19 28 48 48 37 46 55 47 47 53 47 40 44 47 48 48 45 43 45 44 41 43 47 47 50 56 54 51 52 52 53 52 42 40 50 53 58 67 64 57 66 78 87 91 82 76 82 85 83 80 72 74 84 72 57 61 57 42 55 84 89 73 61 62 70 72 70 69
9 10 10 11 12 12 13 14 13 13 14 14 15 15 14 14 13 16 19 16 24 44 47 37 39 42 37 38 44 46 46 49 53 60 59 48 40 43 47 40 38 42 43 46 52 51 52 54 49 48 58 55 47 51 57 61 66 63 63 73 80 85 90 85 82 86 84 78 77 76 81 84 70 58 59 56 58 79 90 75 60 60 67 72 70 66 65
11 11 11 12 13 13 14 14 14 14 14 14 16 15 15 16 15 16 19 16 21 34 40 37 34 34 34 34 34 40 44 44 45 50 51 46 41 46 53 50 44 45 48 52 57 53 52 55 50 49 58 56 48 54 62 61 58 57 65 76 74 73 86 92 85 83 87 85 82 89 95 84 68 68 70 65 70 79 71 58 60 67 70 71 69 65 66
13 14 13 14 15 14 15 15 15 15 14 15 16 16 16 17 16 16 18 18 21 28 35 36 33 32 32 31 31 34 36 36 39 40 41 44 45 47 51 49 47 52 54 54 56 53 49 52 53 54 56 55 55 63 70 72 66 54 55 69 72 70 81 93 86 81 92 95 81 80 89 81 71 75 74 63 60 60 57 61 69 70 70 73 72 72 73
16 16 15 16 16 15 16 15 15 16 15 15 16 16 16 18 17 17 18 18 19 26 34 36 33 32 34 34 34 36 35 36 38 38 40 43 44 45 46 45 50 56 55 53 58 61 59 56 57 64 69 68 66 65 72 84 83 65 58 70 78 69 60 68 77 73 72 75 69 67 77 79 73 70 65 58 58 56 57 65 70 71 72 75 77 78 75
18 17 17 17 17 16 17 16 16 16 15 15 16 16 16 17 18 18 19 19 19 25 34 35 34 35 36 35 37 38 37 39 40 39 41 46 51 52 47 46 54 59 53 50 53 59 62 55 53 66 75 70 68 73 78 81 78 76 74 68 62 56 46 51 70 71 58 58 66 71 73 70 66 67 65 62 59 57 60 69 73 71 71 73 75 75 71
16 16 16 16 17 17 17 17 17 17 16 16 16 16 16 17 18 20 21 22 22 28 37 38 36 38 40 38 39 39 38 39 40 40 41 45 54 59 53 48 54 56 50 49 48 51 56 50 48 64 70 63 69 83 86 77 70 75 83 74 60 55 49 50 66 74 69 69 71 72 71 65 62 67 68 62 59 61 67 73 73 70 72 73 72 71 70
12 13 13 14 17 17 17 17 17 17 17 17 15 16 17 17 18 19 22 24 23 28 42 48 43 43 43 39 38 39 38 40 41 41 44 44 46 52 52 50 52 50 46 48 46 46 52 53 58 72 70 58 64 78 79 75 70 69 79 84 73 61 57 64 74 77 74 69 63 64 70 66 62 67 66 61 63 69 73 72 70 73 77 75 72 73 75
10 11 12 13 15 16 17 17 17 17 17 17 16 16 16 18 19 18 21 26 23 24 41 53 49 44 41 38 39 40 39 41 42 40 44 47 45 48 50 48 48 48 46 47 44 41 46 55 68 84 78 58 56 67 69 67 68 72 78 75 64 61 70 78 80 80 77 69 62 67 75 68 63 67 66 61 66 74 74 72 72 74 76 73 73 76 78
10 10 11 12 13 16 17 17 17 18 17 17 17 17 17 18 20 18 20 26 27 30 43 53 50 44 41 38 39 41 41 43 45 43 44 46 46 48 49 47 48 49 47 48 43 38 45 57 64 70 67 54 52 61 61 57 66 82 83 68 60 70 79 79 84 93 90 75 69 76 82 78 73 69 63 62 71 76 74 75 78 77 74 73 76 78 78
11 10 11 11 12 15 16 16 17 17 17 18 17 17 19 19 20 20 19 22 25 29 37 45 46 47 47 41 39 43 44 44 45 45 45 46 46 49 50 48 48 48 45 47 47 47 56 66 62 55 54 56 62 64 59 63 78 89 81 67 63 70 73 73 82 89 80 69 70 75 77 77 73 63 60 67 75 78 79 83 84 78 74 75 78 79 78
10 11 11 11 12 16 16 16 17 17 18 19 18 18 21 20 20 21 20 20 22 23 27 39 46 46 45 42 41 43 46 47 48 47 46 47 49 52 53 52 51 47 44 46 51 56 60 62 59 57 57 60 67 68 68 82 96 91 74 64 59 59 60 62 68 73 71 68 72 75 73 70 64 58 63 74 78 81 87 88 81 75 76 79 78 77 78
11 12 11 11 13 17 16 16 18 17 18 20 20 22 24 22 21 22 20 22 26 24 26 39 49 45 40 41 43 44 46 48 49 48 48 51 53 52 52 52 50 47 44 45 50 55 58 56 56 60 58 52 57 68 76 88 93 80 64 60 57 55 56 58 61 67 69 70 73 75 70 62 57 61 71 79 84 89 92 84 75 75 80 80 74 71 73
11 11 11 12 15 17 17 17 19 19 18 20 21 22 24 23 23 23 21 23 27 25 25 37 48 48 42 39 41 45 47 48 49 48 48 49 50 51 49 47 47 46 45 47 50 53 58 59 57 57 55 48 52 69 82 89 91 80 65 59 58 56 56 59 61 63 67 71 74 68 57 51 58 72 82 87 91 92 84 74 74 80 80 75 69 68 74
11 11 12 14 15 16 17 18 19 20 20 20 20 20 22 22 23 23 23 24 26 26 28 37 49 53 47 41 40 42 45 48 48 48 47 46 47 49 47 44 46 46 43 46 50 52 56 62 60 59 58 51 52 71 91 97 94 82 66 60 61 59 58 63 65 65 68 73 71 64 59 61 71 83 90 91 89 81 70 69 77 78 70 63 62 70 84
11 11 13 15 16 17 18 19 20 21 20 19 20 21 20 19 19 21 24 23 20 21 24 32 45 52 48 43 43 41 41 47 48 45 48 49 47 48 48 46 45 45 44 47 52 53 57 60 57 59 62 54 53 75 94 92 81 72 64 64 66 64 63 67 68 68 71 72 69 67 71 76 81 88 92 87 77 67 65 71 76 71 64 63 68 79 90
11 12 15 16 16 17 19 19 21 22 20 20 22 22 21 18 13 13 19 20 16 16 17 25 45 59 54 49 49 43 38 43 47 45 46 47 45 47 51 48 44 45 47 50 52 54 57 56 57 66 69 61 64 84 93 82 70 67 68 69 68 67 70 71 69 71 76 72 63 59 68 80 88 89 85 78 71 66 66 70 71 67 65 69 76 82 85
12 13 15 16 16 18 19 19 21 23 22 23 23 23 25 23 13 9 14 15 15 18 20 25 45 63 66 65 63 51 39 42 48 47 46 46 46 47 46 45 47 52 53 52 53 57 58 56 61 74 77 75 85 98 92 76 69 69 70 71 70 71 75 76 76 79 77 64 53 57 74 90 91 85 82 79 73 67 67 68 67 67 69 73 75 77 77
13 14 15 16 17 18 17 18 21 21 21 23 25 25 26 25 19 13 12 11 13 18 23 32 49 62 64 64 60 46 38 44 50 47 45 46 46 43 44 51 57 55 50 51 56 61 60 59 67 81 87 89 94 93 80 71 72 72 72 72 72 73 76 79 83 83 68 50 48 67 88 95 90 88 91 84 70 66 70 69 65 67 75 78 75 73 74
14 15 16 16 17 18 19 19 19 20 21 23 24 25 27 28 25 19 13 12 16 18 20 35 55 59 54 55 53 44 40 47 50 47 47 49 46 43 48 62 69 62 58 63 66 62 58 63 77 92 97 92 87 80 74 72 73 73 73 73 72 73 75 79 83 79 59 45 57 82 98 97 92 95 96 80 65 66 71 67 65 71 75 74 70 69 73
15 15 16 17 17 17 18 19 19 21 22 22 24 25 24 22 23 23 19 18 23 24 25 37 52 52 48 52 55 49 43 45 48 49 50 50 48 46 50 60 66 65 68 72 66 56 60 75 90 99 98 88 79 77 77 75 75 76 75 72 71 74 76 80 83 74 58 58 78 96 100 98 99 101 93 75 65 68 69 64 65 69 68 67 69 69 71
16 16 16 17 18 18 20 21 21 21 21 23 27 27 22 18 21 27 28 25 26 29 34 43 51 53 51 54 56 51 46 48 54 59 58 55 51 50 53 55 53 56 66 69 57 50 63 83 95 99 97 89 82 80 78 77 79 79 73 69 72 77 78 83 84 70 59 71 93 101 99 101 103 97 82 70 68 72 71 67 68 68 67 68 69 69 72
15 17 18 18 19 21 22 21 21 22 24 25 25 22 20 22 25 28 34 42 46 43 40 45 51 52 51 55 60 57 50 49 56 61 62 56 49 49 54 50 44 52 72 73 56 50 64 80 87 92 94 90 84 81 80 81 83 78 70 69 74 77 80 85 81 64 57 74 92 96 93 92 88 78 69 66 69 72 71 70 71 70 68 67 67 69 75
16 17 18 18 20 23 23 23 24 25 24 24 25 27 27 29 29 30 38 52 57 50 42 44 49 49 48 53 57 53 48 49 53 56 59 55 48 49 55 50 42 52 68 66 53 55 71 82 86 89 91 89 85 82 82 85 83 75 68 69 73 77 83 85 73 56 57 74 88 90 86 77 67 61 60 61 64 67 70 71 70 66 64 65 66 70 75
18 17 18 19 20 21 22 23 23 23 22 23 28 35 39 37 32 32 40 47 47 45 44 46 48 49 50 52 51 49 49 50 49 50 57 55 44 44 54 55 48 49 55 55 55 62 73 85 94 95 89 85 84 82 83 85 81 70 65 69 75 79 84 81 66 53 62 79 88 88 81 68 56 53 55 58 60 63 64 66 65 63 63 64 65 68 71
18 18 18 20 19 21 24 24 20 23 33 37 30 28 37 44 42 40 46 49 47 46 48 48 47 49 52 51 48 47 49 49 46 46 50 48 42 46 58 64 60 53 49 53 64 71 73 82 94 95 88 84 83 83 86 83 72 62 63 70 76 81 83 75 59 53 63 77 81 79 73 61 49 46 51 57 60 58 56 59 62 63 64 64 64 66 70
18 19 19 20 19 21 25 27 21 18 30 42 39 30 31 39 46 51 54 51 47 49 52 52 53 56 55 50 46 44 46 49 48 44 41 42 48 56 61 62 60 54 52 61 74 76 73 79 86 86 84 84 84 85 85 74 59 57 66 73 78 84 80 63 49 49 59 67 67 65 60 51 42 40 46 54 57 56 55 58 61 62 64 66 65 64 67
19 19 19 22 24 22 23 31 31 24 27 46 59 56 44 42 51 60 56 45 42 50 54 53 55 58 54 49 48 46 45 45 44 43 43 46 50 54 56 57 58 58 64 74 74 61 59 76 87 83 80 84 85 82 73 60 52 60 71 76 80 83 72 54 46 51 56 58 59 57 52 44 39 40 44 49 55 57 56 58 62 63 64 65 64 62 61
18 18 19 25 31 29 28 36 42 42 41 49 58 58 51 46 48 50 46 40 42 47 47 47 52 55 50 47 46 44 40 38 41 45 48 47 47 48 47 48 53 56 57 60 63 61 66 82 89 81 78 83 82 69 57 53 58 67 74 78 82 76 60 47 48 50 49 51 54 52 46 41 40 41 42 46 52 56 55 56 61 63 62 62 63 61 56
17 17 20 28 36 38 36 37 40 41 41 40 39 40 41 40 38 40 42 43 43 42 42 46 52 53 49 47 47 45 42 42 44 46 46 47 52 54 48 47 57 60 43 32 49 73 82 80 78 79 80 78 68 54 49 56 64 68 73 78 76 59 42 39 44 46 45 49 51 47 42 41 43 45 45 46 49 53 52 51 54 57 59 60 60 57 53
15 17 22 31 39 41 39 37 37 37 36 34 33 34 35 36 38 41 42 40 39 40 42 46 50 54 55 53 50 48 46 40 38 42 45 43 41 41 39 42 55 63 53 48 65 82 79 70 73 78 73 61 51 49 53 59 63 67 72 70 57 40 31 35 41 41 42 45 45 43 43 44 45 47 50 48 46 48 50 49 47 49 53 55 53 51 51
14 17 23 32 38 38 32 32 38 40 35 32 32 33 33 35 37 37 36 36 38 42 44 45 49 55 56 51 49 49 48 41 38 43 49 50 50 47 41 38 42 51 60 69 75 73 67 68 71 66 55 48 49 53 56 58 63 68 66 55 40 30 30 34 36 36 37 38 39 39 42 44 45 48 50 47 42 43 48 49 44 41 44 47 48 48 48
15 18 23 28 32 31 29 35 45 49 42 34 31 31 32 33 34 33 33 34 37 40 44 48 51 53 50 48 48 48 47 49 50 45 42 54 66 57 36 30 47 64 70 67 62 59 63 66 60 49 45 49 52 54 57 61 65 64 56 41 31 29 31 32 32 31 31 32 33 35 37 41 43 45 48 47 43 41 44 45 41 36 37 40 43 45 47
16 19 23 26 27 26 27 31 38 40 37 32 29 29 30 32 32 31 30 32 37 43 46 47 49 49 47 44 42 35 32 43 56 50 39 48 65 60 43 45 66 75 65 56 56 61 62 56 48 44 47 50 51 54 60 63 63 57 45 32 27 30 32 31 29 27 27 29 31 32 34 39 43 45 47 49 47 42 38 36 35 35 36 37 39 44 48
18 20 23 25 24 24 23 23 24 26 27 28 29 30 32 32 32 30 30 33 37 41 40 41 45 48 44 39 40 39 36 40 48 47 41 42 53 61 64 68 67 57 48 51 58 58 52 46 44 46 48 50 53 58 61 63 60 51 37 27 26 29 29 27 26 25 25 27 30 32 35 39 43 45 46 46 44 40 35 31 32 37 40 40 41 45 48
Wind_Speed
13 14 16 17 17 17 17 15 14 14 13 14 14 12 10 7 3 4 9 11 8 4 3 4 4 2 1 1 1 2 1 1 2 2 3 1 1 2 1 1 1 1 1 1 1 1 1 1 1 0 0 1 2 2 4 5 2 1 1 2 4 2 2 1 4 4 3 4 4 3 1 2 3 2 3 2 2 2 3 4 3 1 2 2 1 1 3
13 14 16 17 17 16 15 14 15 15 15 16 16 12 9 7 4 4 9 11 8 3 1 1 2 2 0 1 2 2 1 2 1 1 2 1 1 1 0 1 1 1 1 1 2 2 0 1 1 0 0 0 1 3 5 4 3 3 0 1 4 3 0 2 3 4 6 6 5 5 4 3 3 1 3 3 4 4 2 1 3 1 2 1 1 3 3
13 15 16 16 15 15 15 14 15 15 16 16 15 13 9 5 3 4 8 11 9 6 3 2 1 0 2 2 2 1 1 1 1 0 1 1 0 1 1 1 1 2 0 0 2 2 1 1 2 2 1 1 1 3 5 3 2 2 1 1 2 1 1 2 3 0 2 3 3 3 3 3 2 1 4 4 4 5 3 1 3 1 2 3 1 4 4
13 15 15 14 14 14 14 14 15 14 15 15 14 12 9 4 2 3 6 9 12 10 6 4 3 1 2 2 2 2 1 1 0 0 1 2 1 0 1 1 1 1 2 2 3 3 1 1 2 2 2 3 1 3 5 3 2 3 3 2 2 1 0 1 4 5 4 5 6 3 1 3 3 3 5 4 3 4 4 4 2 1 1 3 2 3 7
13 13 13 13 13 14 14 14 14 14 14 13 12 11 8 4 1 2 4 5 7 9 9 9 4 1 2 1 1 2 2 2 1 1 0 1 1 0 1 1 1 1 2 2 2 3 2 1 1 1 2 3 1 3 4 4 3 2 3 3 2 3 2 2 2 4 6 6 7 4 3 2 2 4 5 5 6 6 7 5 2 2 1 3 4 6 8
12 12 12 13 13 13 13 14 14 13 13 12 11 10 8 4 1 1 3 2 1 3 6 8 6 2 2 2 0 2 3 2 1 1 1 1 1 1 1 3 3 1 0 1 1 4 4 2 1 0 2 3 3 3 3 3 3 2 3 3 3 4 1 3 1 4 7 7 8 3 4 4 5 7 6 6 8 8 7 3 3 4 1 5 6 8 7
11 12 12 12 12 13 13 13 13 13 12 11 10 8 7 5 2 2 3 1 1 1 3 5 5 4 2 2 1 1 2 1 2 1 2 2 2 2 1 3 5 4 1 2 0 3 3 2 3 0 1 3 3 2 2 2 2 2 3 3 2 3 1 3 2 4 7 7 6 3 8 6 7 8 7 7 7 8 6 3 4 5 3 5 6 8 3
11 12 12 12 12 12 12 12 12 12 11 9 9 8 6 5 2 2 2 2 1 1 3 2 3 3 3 2 1 0 2 1 3 1 3 2 3 2 1 4 6 5 1 3 2 2 2 3 4 1 0 3 2 1 1 1 3 4 2 2 2 2 1 2 1 2 6 5 6 8 9 9 9 9 8 8 9 9 8 6 6 5 4 5 7 6 2
11 11 12 12 12 12 12 11 11 11 10 9 7 7 6 5 3 3 2 1 2 2 2 1 3 2 3 1 1 1 1 1 2 1 1 0 0 1 1 3 5 4 2 3 2 3 2 3 4 2 1 2 1 1 1 0 3 4 1 2 2 2 2 3 4 3 5 2 7 8 8 10 11 9 9 8 9 8 6 5 5 4 4 5 7 5 4
11 11 11 12 12 11 11 11 10 10 9 8 7 6 5 4 3 2 2 1 2 3 3 2 3 1 1 1 1 1 2 1 1 1 1 1 3 2 2 2 2 3 2 1 1 2 1 2 2 1 2 2 1 1 2 2 1 1 0 1 1 2 1 2 3 2 4 2 3 6 5 4 4 6 6 4 6 7 6 3 5 5 3 3 4 4 6
11 11 12 12 11 11 11 10 10 10 9 8 7 5 4 4 3 3 3 2 2 3 3 3 3 0 1 1 1 1 1 2 3 2 1 0 3 4 3 1 1 1 1 1 2 3 3 1 1 2 2 2 3 3 4 5 4 2 1 1 1 3 3 1 1 1 4 7 4 4 3 0 2 1 5 2 4 8 9 3 5 5 4 3 3 5 7
12 12 12 12 11 12 11 11 10 10 9 8 7 5 5 4 4 3 3 2 1 3 3 2 1 1 2 3 2 2 2 3 2 1 1 1 1 3 3 1 1 1 2 4 5 3 2 4 5 5 5 5 6 7 7 7 6 5 4 3 1 3 3 1 0 2 3 4 6 4 0 2 5 3 6 5 2 4 8 2 5 5 6 5 7 7 10
12 12 12 12 12 12 12 12 11 10 10 8 7 6 5 4 3 3 2 3 1 3 3 2 1 3 4 4 2 2 2 2 1 0 1 1 1 2 3 3 1 2 5 7 6 1 3 4 4 4 4 4 4 6 7 6 5 7 7 5 3 2 2 2 0 1 1 3 5 2 2 1 2 1 8 9 3 6 11 4 3 6 8 7 8 9 13
12 13 13 13 14 14 13 13 12 12 11 9 8 7 6 4 3 3 2 2 1 3 3 2 2 6 6 6 4 3 3 2 1 0 0 1 2 2 4 5 4 4 6 6 3 1 2 2 2 2 3 3 3 3 4 4 4 5 6 7 4 3 1 2 2 1 2 2 3 2 2 1 3 4 8 9 4 6 10 5 0 6 10 11 10 11 16
13 13 14 14 15 15 14 14 13 13 12 10 9 8 6 5 3 3 3 3 3 3 5 2 4 8 7 6 6 4 3 2 2 1 1 1 1 2 5 6 4 4 6 5 1 1 1 1 2 2 3 2 1 1 1 2 3 3 6 9 9 5 2 3 2 1 3 3 2 3 1 3 1 4 9 10 9 12 11 5 2 7 17 20 16 13 18
13 13 14 15 15 15 15 15 14 14 13 11 10 9 7 6 4 3 3 3 2 1 4 4 5 6 7 5 4 5 3 3 3 2 2 2 2 2 6 7 5 4 6 5 1 1 2 1 1 0 1 1 0 1 1 1 1 4 7 10 11 9 5 4 4 2 3 3 1 1 3 4 1 7 12 14 18 21 12 3 2 8 19 23 19 17 20
13 14 15 16 16 16 16 16 15 15 14 13 12 11 9 7 6 4 2 3 3 3 3 6 4 4 4 3 2 4 4 4 3 2 2 3 2 3 7 8 5 4 6 5 1 2 3 1 1 2 2 2 1 1 1 2 2 4 7 7 9 8 5 5 5 2 3 2 1 2 2 2 4 10 13 17 22 18 6 1 4 10 17 18 17 19 22
13 14 15 16 17 17 17 16 16 15 14 14 13 12 11 9 7 6 4 3 4 4 4 7 5 2 2 2 2 3 4 4 3 2 3 2 1 6 9 7 4 4 5 3 2 2 3 1 1 2 1 3 2 2 1 3 2 4 5 4 5 4 3 3 4 2 3 2 0 3 2 2 9 15 16 20 19 7 3 3 10 16 20 18 19 22 23
14 15 16 16 16 16 16 16 15 14 14 14 13 12 11 10 8 7 5 3 4 5 5 7 9 7 6 4 3 4 4 4 3 2 1 1 5 10 8 2 3 5 4 3 2 2 2 1 1 2 1 3 2 3 2 3 1 2 4 3 3 3 3 3 2 2 4 1 1 4 1 2 14 19 16 18 12 1 3 10 14 19 22 21 22 24 23
14 14 15 15 15 16 16 15 15 14 13 13 13 11 11 11 9 8 5 4 7 12 10 9 10 11 10 10 9 8 6 4 4 3 1 1 8 12 5 1 4 6 4 4 3 1 2 2 3 1 2 2 1 4 3 3 2 2 2 2 2 1 1 3 3 1 2 2 3 3 2 4 18 17 8 10 8 2 9 15 17 19 22 23 24 24 23
14 14 14 15 15 15 16 15 15 14 13 13 13 12 11 11 10 9 8 4 6 11 12 11 12 12 12 12 12 11 10 8 7 5 3 3 7 8 2 1 5 5 2 2 2 1 1 1 1 1 1 1 2 3 3 3 2 3 3 4 2 2 3 1 3 0 2 2 2 2 1 6 17 14 5 6 9 11 16 19 19 20 22 22 23 23 23
14 14 14 14 15 15 15 15 15 14 13 12 12 12 12 11 10 10 10 7 8 14 15 13 13 13 13 13 13 12 11 10 9 9 8 5 5 6 3 2 5 5 3 3 1 0 2 1 0 2 2 1 3 3 3 3 1 3 4 4 2 2 2 2 3 1 2 3 2 2 4 9 15 13 9 11 18 22 22 19 18 20 21 21 22 23 25
14 14 14 14 14 14 14 14 14 14 13 12 11 12 12 11 12 12 9 7 12 19 17 13 11 12 13 13 13 12 12 11 10 10 10 7 5 6 6 6 5 4 3 4 2 1 1 1 2 3 2 1 3 3 3 4 1 0 4 3 2 5 12 6 1 4 6 2 0 6 11 19 21 15 11 18 25 25 20 17 17 20 21 21 22 24 27
14 14 14 14 14 14 14 13 13 13 13 12 11 11 12 12 11 10 7 6 9 12 13 11 12 12 13 14 13 12 13 12 10 10 10 8 5 5 6 6 5 4 4 6 4 2 2 1 1 4 3 2 2 3 3 3 2 2 3 3 1 8 16 10 2 4 5 1 3 10 17 25 24 14 14 22 25 20 17 17 20 22 21 21 23 25 29
14 14 14 14 14 14 13 13 13 13 13 12 10 10 11 11 11 9 6 5 5 6 7 9 12 13 13 13 13 13 13 12 11 10 10 9 8 6 6 7 8 7 6 7 6 4 4 4 3 5 3 3 3 2 2 2 1 2 3 2 3 7 11 7 2 3 4 5 5 14 21 23 15 10 18 26 22 17 17 19 20 20 20 22 25 27 29
14 14 14 13 13 13 13 13 12 12 12 12 10 9 9 10 11 9 6 4 5 6 7 6 9 13 14 14 14 15 14 12 11 10 10 10 10 9 8 8 8 8 9 9 9 8 8 7 5 3 2 3 4 3 3 4 4 3 4 3 3 5 5 4 3 4 5 6 8 15 16 11 7 11 23 26 20 18 21 22 20 20 23 27 28 28 29
14 14 13 13 13 13 13 12 12 11 12 11 9 8 8 9 11 9 5 3 3 4 5 5 6 11 15 16 15 15 14 12 11 11 12 13 11 10 9 8 7 7 7 7 8 9 10 8 5 3 3 5 7 6 5 6 6 5 3 4 6 4 2 3 4 3 3 4 8 12 10 6 9 19 26 23 19 20 22 22 22 23 27 29 30 31 30
14 13 13 12 12 12 12 11 11 11 11 11 9 7 7 10 11 10 7 5 3 3 9 11 9 8 10 14 15 14 13 13 12 11 12 13 12 12 11 10 9 7 6 7 8 9 8 5 4 3 4 6 6 5 6 7 6 3 1 4 7 5 3 4 4 3 6 9 14 16 12 12 18 24 25 20 19 21 21 22 23 26 27 27 29 32 33
13 13 12 12 12 11 11 12 11 11 11 10 7 6 8 11 13 11 10 9 7 7 14 16 10 7 8 11 13 13 13 12 12 12 12 11 11 11 10 10 10 9 10 12 13 11 9 7 6 5 4 4 4 3 4 4 3 1 0 4 8 7 7 8 6 6 10 15 18 18 17 18 23 24 21 19 20 21 22 23 25 27 27 27 29 30 30
13 13 12 12 11 11 12 12 12 12 12 11 7 5 7 11 12 11 10 10 8 6 8 9 6 6 9 12 13 12 12 12 11 11 11 10 10 9 9 9 9 8 10 13 13 10 7 7 7 6 5 4 4 3 2 2 2 2 1 5 8 9 9 9 9 11 14 16 18 20 21 22 23 20 16 17 19 21 23 25 27 27 27 28 29 29 27
13 12 12 11 11 11 12 13 13 13 14 13 10 7 5 6 9 9 9 8 7 5 7 9 8 6 6 11 13 12 10 11 11 10 10 10 10 10 9 10 10 9 12 14 12 8 5 5 4 5 5 5 4 3 3 3 2 1 1 5 8 10 10 11 14 16 17 18 20 22 21 20 19 16 15 16 20 23 26 27 27 26 27 28 27 26 24
12 11 11 10 10 11 12 13 14 13 13 14 15 13 9 8 9 9 7 8 7 5 4 7 7 3 1 6 12 14 10 8 9 9 8 8 9 9 9 10 9 9 10 11 8 6 5 5 6 7 7 5 4 4 3 3 3 3 2 5 10 11 11 14 18 18 17 18 20 20 18 17 17 16 16 18 22 26 28 28 26 26 28 28 26 24 22
11 11 10 10 10 10 11 11 12 11 11 14 16 16 14 13 12 9 7 7 8 7 5 4 3 2 1 2 7 15 14 9 8 8 6 5 6 6 7 8 8 8 8 7 5 5 4 4 5 7 6 5 5 5 3 2 3 3 3 8 11 12 13 17 18 16 16 19 20 18 17 18 18 16 18 21 25 27 28 26 26 27 28 27 26 25 23
10 10 9 9 9 9 9 9 9 9 10 13 15 15 15 15 14 13 9 7 7 9 10 8 4 2 2 1 3 12 16 11 8 8 6 4 5 5 4 4 5 6 8 8 6 5 4 4 4 4 4 4 5 4 1 2 3 2 5 10 12 13 16 18 17 15 18 21 21 17 14 16 17 18 20 23 26 27 26 25 26 28 28 27 26 26 25
10 9 9 8 9 9 8 8 7 7 8 11 13 13 12 12 15 16 14 11 9 8 9 9 6 3 3 2 2 10 16 11 7 8 7 4 5 5 3 3 4 4 4 4 4 4 4 3 2 1 1 2 2 1 2 3 3 3 8 12 14 15 17 16 15 17 21 22 20 15 12 13 17 19 21 25 27 27 26 26 26 27 27 27 28 27 27
9 9 8 8 8 8 8 7 5 5 6 8 9 10 9 9 11 13 15 17 17 13 8 7 6 4 3 1 3 10 13 9 7 8 7 4 4 5 4 3 3 3 3 3 3 4 3 1 1 1 1 1 1 3 4 4 3 5 9 13 15 16 17 16 16 20 23 21 17 13 11 13 17 19 21 26 28 25 25 26 27 27 27 28 29 29 29
9 9 8 8 8 7 7 7 6 5 5 5 6 7 7 7 6 7 11 17 21 20 15 9 5 5 4 2 5 10 10 7 7 8 7 6 5 4 4 3 2 2 3 3 2 2 2 1 2 2 0 1 3 5 5 3 3 7 11 14 16 17 17 18 19 22 23 21 17 12 11 14 17 20 25 28 27 25 25 27 28 27 28 30 30 29 29
9 9 8 8 7 6 6 6 6 5 5 6 6 6 6 6 4 5 10 13 14 17 17 12 7 8 7 2 4 9 8 6 7 7 6 6 6 3 3 3 2 2 2 2 1 1 2 2 3 2 1 3 5 6 4 3 4 9 14 16 15 16 18 19 20 22 22 20 17 14 14 17 20 24 27 28 26 24 26 27 26 27 28 29 29 28 29
9 8 8 8 8 7 6 5 5 5 5 6 5 4 5 7 5 5 8 9 7 10 13 11 7 10 11 6 4 7 8 7 6 5 4 6 5 2 2 2 1 2 2 1 1 2 2 2 1 1 2 4 7 6 5 5 6 13 17 16 15 17 18 19 20 21 18 15 14 14 16 19 22 26 27 26 24 24 25 25 25 26 27 27 27 28 28
9 8 7 7 7 8 7 6 4 4 4 5 4 4 5 8 7 4 5 5 4 6 9 8 6 9 10 6 3 5 9 8 4 2 2 3 3 2 2 1 1 2 1 1 1 2 1 0 0 1 2 5 9 8 6 5 10 17 19 16 16 18 18 19 21 20 16 12 13 14 16 19 22 24 24 22 22 23 24 24 24 25 26 26 26 26 27
9 8 6 6 7 7 7 7 5 3 3 4 4 4 4 5 5 5 5 4 2 4 8 9 8 9 10 8 5 5 7 7 4 2 2 2 3 3 1 1 1 2 1 2 3 2 2 1 1 2 3 6 9 8 6 7 14 19 19 17 18 18 19 21 22 19 15 14 14 16 18 20 22 22 20 19 20 21 22 22 23 24 25 25 25 26 26
10 8 6 6 7 6 6 7 7 4 3 4 4 2 2 2 3 4 5 3 1 5 8 9 9 10 10 9 6 5 5 6 5 1 1 2 4 2 0 0 2 2 1 3 3 3 2 1 3 4 3 6 8 7 7 10 17 20 18 17 18 18 20 22 22 18 15 15 16 17 20 21 21 20 18 19 20 20 20 21 22 23 24 25 25 25 26
10 9 5 4 6 7 5 6 8 6 3 4 3 2 3 3 2 1 2 1 2 5 7 8 11 10 8 6 6 5 4 5 5 1 0 2 3 2 1 2 2 1 1 2 2 2 1 1 3 4 5 7 7 7 9 14 19 19 17 17 19 19 20 22 20 16 15 16 17 18 20 21 20 18 17 17 19 19 19 20 21 23 24 24 24 25 25
9 9 5 3 6 7 4 4 7 6 3 2 2 1 2 4 2 1 2 4 5 6 8 10 12 10 6 6 7 4 2 3 4 2 1 3 3 2 2 1 1 1 2 2 2 1 2 3 3 4 6 7 6 8 12 17 20 19 17 17 18 19 21 21 18 15 15 17 17 18 19 20 19 17 16 16 17 18 19 20 21 22 23 24 24 24 24
8 9 5 2 6 9 5 2 5 5 2 0 0 3 3 2 3 3 3 5 6 7 9 12 12 9 6 5 5 3 2 3 3 1 1 3 3 2 0 1 1 1 2 1 1 1 2 3 3 5 6 6 7 11 17 20 20 18 17 17 18 19 21 20 17 15 16 17 17 18 19 20 19 18 17 16 16 17 18 20 21 22 23 24 24 25 25
8 8 5 3 4 7 5 1 2 2 1 1 1 3 4 4 4 4 5 7 8 9 11 11 9 7 6 3 2 2 3 3 2 1 2 2 1 0 1 0 1 3 3 2 2 2 3 4 5 6 6 8 12 16 20 21 19 18 17 17 18 20 20 17 15 16 17 17 16 18 19 19 19 18 17 17 17 17 18 19 20 21 22 23 24 25 25
6 7 6 4 2 4 4 2 0 1 2 1 1 2 3 4 5 5 6 8 8 10 11 9 6 5 4 2 1 2 2 2 1 2 2 2 1 1 1 2 1 0 1 1 3 4 4 4 3 4 7 12 16 19 21 20 19 18 18 17 19 21 19 16 16 17 17 16 17 18 19 19 18 18 18 18 17 17 18 19 19 20 21 23 24 24 25
6 5 5 3 1 1 2 2 3 3 2 1 1 2 3 4 4 5 6 7 8 9 9 7 4 3 2 1 2 2 2 3 2 1 1 2 1 1 3 2 1 1 1 3 4 4 3 2 4 7 10 14 18 20 21 21 19 18 18 18 20 20 18 16 17 17 16 16 17 18 18 19 18 18 18 19 18 18 18 19 19 20 21 23 24 24 24
9 6 5 4 3 2 2 4 4 2 1 1 1 2 3 3 4 5 7 7 8 8 6 4 2 1 2 1 1 1 1 2 1 1 2 3 1 0 1 1 2 3 3 4 4 3 3 5 7 10 13 16 19 21 22 21 20 19 18 19 19 18 16 16 17 17 16 16 17 18 18 19 19 19 19 20 19 19 18 19 20 20 21 22 24 24 24
10 8 6 5 4 2 3 4 2 2 3 3 2 2 3 4 5 6 7 7 7 6 4 3 2 2 2 1 2 1 1 0 1 1 1 1 1 1 1 1 3 4 4 4 4 4 6 8 10 12 14 17 20 22 22 20 19 18 18 18 17 16 16 17 17 16 16 16 17 17 18 18 18 19 19 20 20 19 18 18 19 20 21 21 22 23 23
6 6 5 4 3 4 5 3 2 3 4 4 3 2 3 3 4 6 7 6 5 4 3 2 1 2 2 2 1 0 1 1 2 2 0 2 2 3 2 3 5 5 4 4 5 7 8 9 11 13 15 18 21 22 21 20 18 18 18 17 16 15 16 17 16 16 15 15 16 16 16 17 17 18 18 18 19 18 18 18 19 19 20 21 22 23 23
3 3 3 2 3 4 4 2 2 3 4 3 2 2 3 3 4 6 6 5 4 3 2 2 1 2 1 0 1 0 0 1 1 1 2 3 3 4 4 5 5 5 5 6 7 8 9 10 11 13 16 19 21 22 22 20 19 18 17 17 16 16 16 16 16 15 15 14 15 15 15 15 16 17 17 17 18 19 19 20 20 20 20 21 22 22 23
Wind_Direction
343 346 345 342 343 345 347 351 354 356 359 358 359 3 5 9 13 8 7 2 1 31 42 359 9 62 118 169 69 40 54 28 348 3 27 14 344 3 8 82 60 254 222 13 340 328 308 308 343 326 209 206 250 292 352 348 332 9 324 338 4 13 95 28 296 289 317 314 309 308 287 94 81 21 9 69 77 84 148 184 185 151 297 291 147 221 182
341 342 339 339 343 345 348 352 352 356 360 0 3 6 3 4 15 24 14 5 11 57 106 356 336 314 244 72 16 25 55 37 14 347 7 1 25 39 339 36 30 288 182 132 246 251 317 355 9 67 119 287 302 350 18 15 16 38 23 333 1 348 176 54 357 342 348 349 349 336 333 30 67 20 12 47 63 47 44 60 72 101 275 337 182 235 201
339 337 337 340 345 348 350 352 353 357 359 358 2 4 1 6 23 27 16 16 38 77 120 141 145 343 50 44 1 356 17 29 44 317 352 350 49 96 283 301 315 291 322 28 276 264 198 266 346 27 352 308 346 18 18 13 24 33 7 320 2 333 209 95 89 83 315 306 290 292 312 347 14 41 20 33 64 51 33 46 63 131 284 354 189 235 286
336 335 339 344 349 351 351 352 352 354 355 357 3 6 7 24 25 355 4 22 51 71 68 63 97 121 73 47 1 12 352 318 28 96 357 343 333 234 260 290 301 339 23 9 305 298 232 248 12 32 336 295 320 25 25 29 23 16 19 7 22 91 349 83 144 183 213 228 244 250 44 349 334 9 5 11 42 45 73 88 63 197 286 321 249 277 325
337 339 345 348 350 351 349 350 351 352 354 359 7 13 20 45 40 346 356 11 41 58 44 37 51 120 113 110 344 359 337 315 5 27 323 347 352 285 264 358 19 350 12 10 301 302 330 15 43 25 298 279 313 35 38 38 20 22 34 2 34 83 355 315 167 219 233 232 256 291 34 23 42 54 25 19 23 34 72 78 12 28 41 291 293 339 337
343 346 350 350 351 352 352 355 355 356 359 3 11 21 29 42 73 51 41 1 359 31 12 16 32 40 79 128 117 6 15 13 358 298 302 348 14 32 8 6 7 298 283 60 308 318 347 7 338 328 317 316 349 18 22 30 17 17 18 2 82 106 262 253 203 273 269 268 280 301 83 75 66 62 49 50 46 46 61 56 22 46 29 261 299 333 329
351 353 355 355 355 355 355 357 357 0 5 8 17 30 37 50 79 63 37 1 212 226 326 352 29 28 39 91 56 31 69 31 283 275 13 356 348 57 86 319 330 314 301 101 159 306 351 338 295 300 350 323 348 12 348 355 354 359 18 5 79 110 262 247 216 291 291 299 316 73 106 91 58 47 46 58 57 51 48 8 355 15 316 276 321 329 318
359 358 358 356 356 355 354 356 357 2 8 12 23 35 39 43 40 25 29 8 319 323 321 1 53 31 28 63 350 27 109 262 287 348 54 347 318 22 44 287 300 296 300 103 161 232 177 210 250 212 67 329 357 60 263 298 337 359 36 342 3 90 287 290 68 341 305 332 39 76 99 94 68 41 30 42 40 33 25 356 354 6 323 314 349 339 308
0 358 357 355 356 355 354 357 358 2 8 13 24 36 42 41 22 8 32 9 340 337 318 55 84 34 12 36 269 322 9 263 272 354 41 83 291 2 283 289 311 322 31 97 176 222 169 190 225 204 194 286 288 299 290 328 330 343 24 337 359 69 317 334 49 27 302 353 81 92 100 92 72 36 18 36 41 23 350 341 12 10 321 331 4 1 325
359 358 357 356 357 357 358 0 2 5 11 13 19 30 37 47 36 13 27 2 334 343 343 30 72 66 282 221 254 300 291 289 42 52 350 67 70 6 302 285 338 357 26 84 210 256 304 267 266 307 302 285 274 300 12 50 41 290 52 358 4 74 51 339 34 23 285 302 101 124 116 80 42 7 357 24 56 24 337 349 48 26 355 8 3 339 321
1 2 2 1 2 4 5 7 7 10 14 15 22 29 28 42 46 22 43 63 342 351 15 32 56 150 266 337 332 323 338 352 32 83 219 338 42 1 336 9 44 339 273 283 317 336 341 355 91 76 61 47 70 86 62 50 62 74 78 74 355 51 78 264 319 96 274 302 358 96 116 287 232 28 3 352 84 34 353 2 69 45 45 49 331 320 333
9 10 10 11 13 14 15 17 15 16 19 19 24 27 20 36 40 15 47 89 356 8 46 49 11 342 348 352 314 283 328 340 356 83 217 272 346 347 346 59 84 309 294 313 327 344 61 92 88 78 75 79 84 77 56 40 38 35 53 88 55 26 33 286 253 119 254 313 20 43 326 231 187 141 25 2 141 37 4 54 109 51 31 16 349 342 343
17 19 21 23 25 25 26 26 23 22 24 22 24 27 22 31 33 8 48 103 32 10 66 114 73 30 356 345 335 293 310 340 4 103 202 237 269 324 354 12 346 296 302 312 324 19 106 93 75 56 45 57 70 53 32 18 15 21 34 58 79 66 18 326 317 81 331 10 22 1 200 145 175 138 14 7 9 6 0 12 101 38 16 3 349 342 344
26 29 32 32 32 33 31 31 30 27 27 25 23 24 20 21 33 20 34 89 79 26 66 123 9 4 349 340 350 331 314 352 30 216 199 269 284 329 5 354 325 311 313 313 323 88 120 90 57 22 357 14 26 7 356 354 4 18 10 5 31 93 78 19 20 32 68 48 329 300 170 68 15 10 352 353 11 352 333 305 194 32 15 1 350 345 348
35 37 38 37 36 36 33 33 33 30 30 29 26 25 24 22 37 44 39 85 124 65 50 38 323 333 336 344 5 7 344 350 348 279 251 269 294 348 6 354 336 326 328 329 349 94 82 77 37 2 345 1 9 310 333 356 350 6 8 8 24 46 60 66 63 28 63 69 352 5 257 246 347 355 322 325 328 312 298 258 225 8 5 2 1 356 349
40 41 40 37 35 35 34 33 33 31 32 32 29 29 27 25 39 63 54 58 115 96 14 351 311 311 320 328 4 24 10 334 342 344 332 333 340 2 358 353 349 336 333 339 24 95 56 72 189 316 281 248 254 283 328 34 351 352 12 23 31 29 31 70 78 38 37 57 36 340 242 220 16 334 316 325 321 309 301 242 227 3 8 6 5 355 345
42 41 38 35 34 33 33 32 31 32 31 30 31 30 29 34 43 56 49 38 80 108 7 349 317 296 324 336 342 9 3 333 346 23 330 314 328 358 352 347 348 347 343 346 15 72 46 28 20 20 290 256 83 56 358 65 46 344 350 10 24 20 14 43 53 18 359 43 72 293 232 158 9 327 317 328 323 317 334 310 297 4 15 9 3 350 341
42 39 34 33 33 31 31 30 29 30 30 29 31 31 32 38 41 39 39 43 79 98 48 32 49 64 48 47 342 355 10 355 349 331 291 290 343 345 340 341 357 358 346 356 50 55 35 7 41 65 282 292 35 82 28 35 35 336 337 0 20 14 356 31 58 26 356 40 355 310 225 121 352 333 333 341 334 329 65 332 317 347 356 355 356 347 340
40 36 32 32 31 28 30 30 29 30 30 29 32 34 36 42 42 40 39 42 84 100 77 59 65 66 62 58 34 37 45 21 3 351 333 1 346 334 330 352 40 6 349 8 42 61 55 356 316 110 110 323 9 94 56 32 41 334 350 24 28 5 341 3 48 11 346 10 318 318 238 55 358 342 345 4 5 330 333 331 328 338 340 341 347 344 337
37 33 30 29 28 28 29 29 29 31 30 31 35 36 39 42 39 41 44 65 100 100 90 76 72 68 68 65 60 63 65 43 35 54 97 292 332 342 350 70 2 355 5 24 12 30 83 1 309 60 92 334 38 107 96 63 50 5 54 90 32 21 19 338 328 330 347 356 4 339 234 360 2 353 354 29 34 317 320 331 330 336 340 338 339 339 336
34 31 29 27 26 26 26 26 28 29 28 32 35 32 35 36 35 43 48 55 104 102 90 81 77 72 69 65 60 60 58 49 45 39 18 328 345 7 50 223 349 6 28 25 352 293 36 357 284 22 53 347 39 84 127 116 40 358 83 99 34 56 101 315 291 69 56 345 350 5 243 346 3 9 36 44 19 353 344 341 335 337 341 337 334 333 333
31 28 26 24 22 22 22 22 25 25 25 31 32 29 32 33 32 42 45 47 91 101 96 90 81 71 66 62 55 50 45 40 36 26 18 15 28 45 68 58 41 47 28 15 47 251 344 1 92 58 47 32 38 54 108 109 32 327 23 57 64 43 27 267 229 298 334 227 227 342 341 348 3 21 40 20 4 355 349 342 338 339 338 337 336 332 330
27 23 21 20 18 18 18 18 21 23 23 27 30 30 32 32 33 40 43 56 87 94 92 85 74 64 59 56 51 46 41 36 29 24 23 28 49 59 52 47 54 58 34 36 58 226 324 16 122 104 90 65 60 68 61 59 101 220 14 26 127 32 12 7 206 330 330 267 117 6 350 344 349 3 11 359 354 349 341 336 339 339 336 336 335 331 328
21 17 16 15 15 15 16 16 18 21 21 24 27 28 30 32 34 38 42 54 82 93 85 68 60 58 53 49 46 41 38 34 27 24 26 30 48 57 42 41 57 72 62 49 30 354 1 4 68 95 82 15 58 91 76 48 102 118 38 3 316 20 17 17 23 343 337 299 56 23 352 335 336 349 356 349 348 343 334 334 338 337 333 331 329 327 326
16 14 13 12 11 13 14 15 17 19 20 22 24 26 31 34 32 33 42 50 70 102 95 62 54 58 55 50 45 39 36 33 27 26 32 37 48 60 54 58 72 79 69 52 36 48 70 51 58 93 88 16 30 74 106 95 95 95 74 52 312 345 7 16 353 337 312 268 323 355 339 320 319 347 350 345 343 336 332 336 339 335 331 328 327 327 327
14 12 10 9 10 12 13 14 16 18 19 19 21 26 33 34 30 30 44 61 70 89 100 81 63 62 57 49 44 39 36 33 29 35 46 46 49 62 73 76 78 77 72 61 54 70 85 71 57 82 68 27 53 80 101 96 84 79 82 61 339 328 348 353 315 306 288 275 315 345 337 309 295 334 337 336 336 331 331 336 337 333 330 329 328 328 329
13 12 10 10 11 12 13 15 16 18 18 16 19 29 34 31 28 28 39 64 53 63 95 113 94 73 58 48 44 40 36 37 38 45 56 57 59 71 81 79 76 79 83 78 67 70 78 71 57 71 83 75 79 90 102 103 96 93 76 26 11 0 343 342 331 310 289 308 337 348 339 297 300 322 328 331 332 331 333 336 334 333 333 331 328 327 329
13 12 12 12 14 16 18 19 18 18 15 13 22 37 34 30 32 34 40 44 27 76 113 116 105 80 56 43 41 41 40 43 47 54 62 65 68 76 79 74 69 72 88 97 83 67 65 70 74 82 89 88 83 91 110 106 86 76 40 12 19 13 320 321 332 300 290 310 327 333 325 304 307 319 326 330 330 331 334 335 333 334 334 331 328 327 328
14 14 15 17 20 22 23 24 22 19 15 14 29 51 43 36 38 41 47 51 50 88 111 108 89 66 58 47 41 43 44 44 48 56 63 67 69 73 76 75 72 75 85 92 88 76 71 80 82 66 62 89 109 116 117 97 64 54 342 5 9 354 319 313 313 300 301 309 318 322 318 310 312 319 325 327 327 328 330 331 332 333 330 327 327 327 327
14 16 18 21 25 27 29 31 30 28 27 28 38 57 49 41 39 38 45 53 51 69 101 105 94 78 69 55 44 44 48 47 47 54 61 67 72 73 73 76 79 83 89 91 89 84 80 77 72 62 61 89 122 127 108 96 113 150 82 10 358 342 322 309 304 309 314 313 310 308 307 309 314 320 322 321 322 324 326 328 330 329 326 325 327 327 328
14 19 21 25 29 30 32 37 40 40 42 45 51 60 59 44 38 40 46 50 46 51 77 92 104 109 78 53 43 41 46 46 45 54 67 72 76 75 70 73 79 82 85 87 84 79 77 70 64 60 58 67 91 107 103 108 135 204 333 354 343 332 319 307 307 313 313 307 305 306 307 314 323 328 326 322 320 321 323 326 328 326 325 326 329 330 332
17 21 25 30 32 32 33 41 45 47 49 54 59 63 63 51 41 41 46 46 40 38 64 86 93 105 100 54 40 33 34 36 32 41 63 72 71 72 68 66 70 72 75 79 75 65 68 76 72 63 54 60 87 91 78 99 154 218 290 334 331 324 315 311 314 316 311 308 314 318 318 323 329 327 319 315 316 318 323 326 327 326 327 331 335 338 337
20 24 30 35 35 35 38 44 51 54 52 56 61 61 57 52 43 36 41 49 47 44 51 77 93 74 80 89 37 24 23 22 16 23 45 60 56 63 65 59 57 58 57 60 69 81 86 90 85 71 59 69 96 92 78 127 179 213 293 327 327 320 314 315 319 319 315 317 323 323 317 317 318 310 304 308 316 322 327 329 328 329 333 338 341 342 339
24 28 34 37 38 40 42 48 60 62 52 53 59 56 52 51 46 42 47 54 55 55 53 57 79 59 18 82 39 17 14 14 14 21 33 46 43 50 63 52 45 50 53 58 74 90 84 82 94 87 62 61 78 83 108 191 187 238 309 325 328 322 319 321 323 322 320 321 322 321 314 308 304 300 303 313 323 329 331 332 333 335 340 343 343 343 341
28 32 36 38 40 42 44 49 62 63 50 50 53 49 48 51 48 48 51 51 55 66 55 46 57 54 11 7 359 0 3 9 19 18 15 19 30 35 46 51 47 46 49 59 71 71 66 76 96 81 7 18 39 86 200 201 209 283 319 327 328 324 322 323 322 321 322 323 324 325 318 305 302 306 314 324 331 333 334 336 339 340 341 344 345 344 344
31 35 36 38 39 41 43 48 52 53 51 50 45 40 42 47 47 49 51 50 55 65 67 57 57 45 19 305 303 340 353 4 12 10 8 12 16 21 33 51 66 60 46 51 60 54 54 95 139 22 20 9 243 201 187 194 241 303 328 331 325 321 321 321 319 321 324 327 330 331 322 310 310 316 324 330 334 336 336 339 342 343 343 344 345 345 345
31 35 35 35 36 38 42 45 46 53 56 43 31 30 33 36 45 47 42 45 51 55 59 71 67 22 3 261 303 340 352 357 359 6 16 12 3 12 35 48 102 109 48 36 48 51 43 68 92 84 56 214 193 190 188 209 280 317 333 332 322 318 319 319 322 326 328 331 337 339 327 317 319 325 329 333 337 338 340 342 344 344 344 344 344 345 345
29 32 33 34 35 36 39 40 44 56 53 28 17 19 21 24 40 37 28 36 45 44 45 59 60 19 10 350 337 355 358 351 357 13 24 12 3 12 39 44 99 127 39 354 344 57 27 31 77 90 219 198 174 182 209 248 299 327 336 332 322 318 320 322 327 332 333 334 338 337 328 323 327 330 332 334 337 338 340 342 343 343 343 343 342 343 344
25 25 30 37 40 40 41 43 44 44 33 18 15 19 19 23 31 20 13 24 39 34 34 45 42 16 12 9 1 8 7 357 356 8 16 16 16 15 11 26 70 83 39 356 39 57 4 337 34 41 267 209 187 201 236 262 312 334 338 333 322 319 321 324 329 334 334 328 324 320 318 321 325 327 329 333 336 338 339 340 340 341 341 340 341 343 344
23 22 30 41 44 42 42 40 33 25 18 16 26 43 40 35 35 19 3 17 38 32 23 18 4 4 10 5 341 359 12 14 7 343 348 6 6 350 342 354 39 60 62 330 339 20 16 296 43 346 274 210 192 202 232 276 325 338 338 330 321 320 321 324 329 333 331 320 311 310 313 318 323 326 329 334 336 337 337 338 338 338 338 338 342 345 344
22 25 36 43 40 38 37 33 27 20 19 27 37 46 43 36 32 26 26 35 23 350 357 357 350 351 359 358 340 340 4 12 5 309 302 337 347 351 339 246 13 59 119 269 317 14 68 83 296 286 248 191 187 202 238 296 327 336 334 325 319 319 319 323 329 331 327 319 314 313 316 322 327 330 333 335 336 335 335 335 334 335 337 339 343 346 344
22 27 39 42 32 28 30 30 28 27 34 38 37 31 28 36 32 27 35 54 320 324 343 354 349 338 337 345 343 328 339 359 360 331 276 331 344 356 174 221 31 60 194 275 326 21 61 30 295 272 215 178 190 223 269 310 328 333 329 321 318 317 318 324 330 331 323 317 314 314 318 325 332 335 337 337 336 335 334 333 333 335 338 340 344 346 344
20 21 27 31 24 23 27 26 24 30 47 48 36 16 3 10 13 13 20 10 339 338 339 342 343 340 335 341 344 329 325 345 349 337 257 331 335 357 52 38 37 53 265 315 13 48 103 243 255 239 199 186 211 254 296 321 330 332 326 318 316 317 320 326 330 326 319 316 315 317 321 327 334 339 341 338 335 334 335 336 335 335 337 340 344 346 344
16 18 25 31 17 15 14 13 18 29 49 43 40 66 14 346 331 276 297 318 332 342 337 332 336 338 330 333 342 338 321 338 344 340 334 336 344 38 68 40 282 288 320 352 36 85 243 252 237 202 189 202 238 285 315 327 330 329 323 318 316 316 320 326 327 321 316 317 319 321 325 330 336 341 344 342 337 336 338 339 337 337 339 341 344 346 347
14 16 29 49 16 12 14 14 20 34 63 231 147 148 169 243 248 231 271 303 316 325 324 323 326 325 316 323 337 331 310 333 344 332 334 356 16 50 100 249 289 19 31 19 2 326 292 267 211 185 196 233 280 312 325 329 329 328 323 319 316 317 322 326 325 321 320 323 326 328 331 335 338 342 346 347 344 341 342 342 340 340 341 342 344 347 350
21 21 39 80 26 14 26 52 12 27 125 197 208 175 192 230 250 264 291 306 314 321 322 321 323 322 320 323 329 309 316 335 338 320 8 36 48 267 250 240 37 36 34 11 322 289 264 243 212 203 234 285 310 323 329 330 328 327 324 319 317 320 324 326 324 322 325 329 331 331 333 336 338 341 346 349 348 346 346 346 344 341 341 343 345 349 350
28 28 44 77 59 11 28 67 141 130 143 173 221 224 244 271 287 300 309 313 318 324 327 327 324 316 315 320 300 288 315 356 6 347 19 72 154 265 6 56 91 81 48 312 272 257 245 238 234 253 292 313 323 328 331 331 329 326 324 321 319 323 326 327 324 324 328 332 333 332 334 336 338 341 346 350 351 350 349 348 346 344 344 345 347 349 349
39 30 39 80 153 345 41 119 160 155 131 109 269 261 275 294 311 323 322 322 325 328 329 329 324 310 308 305 267 273 318 5 9 339 24 79 115 358 15 18 326 282 206 200 224 238 243 263 289 302 314 323 328 330 332 333 330 327 325 323 322 325 328 328 327 328 332 334 334 334 334 335 338 343 347 348 350 353 352 350 348 348 348 346 347 349 351
55 54 68 100 128 137 131 143 159 172 182 214 269 286 292 304 325 335 333 331 332 332 331 334 340 315 297 301 289 281 333 9 9 348 21 36 62 144 102 39 308 293 256 216 214 237 275 298 310 317 323 329 333 334 334 333 330 327 324 324 324 326 329 329 330 332 335 335 334 334 334 336 339 344 345 345 348 353 354 350 349 351 351 348 346 348 352
58 62 74 85 94 134 157 158 172 227 235 230 243 283 302 313 333 343 344 340 337 336 339 347 340 309 306 354 21 14 326 345 87 70 27 2 178 154 111 232 235 239 237 229 237 268 293 306 316 323 328 334 336 336 334 333 329 325 324 325 326 328 330 331 332 334 335 334 333 333 334 335 338 342 342 342 345 351 352 350 349 352 353 350 347 349 353
59 66 75 83 107 151 167 176 215 239 238 238 249 282 307 320 337 347 348 341 339 344 350 345 344 1 21 31 33 287 273 9 67 74 276 240 179 135 148 229 231 227 237 258 274 289 302 311 318 325 331 336 338 337 335 334 330 327 327 329 330 331 332 331 331 332 333 332 331 332 333 334 336 339 340 339 341 345 349 351 352 353 354 352 351 352 355
66 79 90 107 143 162 172 200 246 246 241 245 257 278 298 317 338 350 350 345 344 340 323 309 358 49 50 323 259 226 10 15 15 330 246 225 194 181 201 235 251 257 266 277 286 297 304 310 316 325 332 337 339 339 338 335 331 328 328 330 332 333 332 330 329 331 331 331 331 331 332 333 336 338 337 337 339 344 348 351 355 357 356 354 354 354 356